Regional Weather Roundup
Issued by NWS

Home | Current Version | Previous Version | Text Only | Print | Product List | Glossary Off
Versions: 1 2 3 4 5 6 7 8 9 10 11 12 13 14 15 16 17 18 19 20 21 22 23 24 25 26 27 28 29 30 31 32 33 34 35 36 37 38 39 40 41 42 43 44 45 46 47 48 49 50

000
ASUS43 KMKX 021000
RWRWI

WISCONSIN REGIONAL WEATHER ROUNDUP
NATIONAL WEATHER SERVICE MILWAUKEE/SULLIVAN WI
500 AM CDT WED SEP 02 2015

NOTE: "FAIR" INDICATES FEW OR NO CLOUDS BELOW 12,000 FEET WITH NO
SIGNIFICANT WEATHER AND/OR OBSTRUCTIONS TO VISIBILITY.

WIZ001-002-006>008-014>016-023>028-021100-
NORTHWEST WISCONSIN

CITY           SKY/WX    TMP DP  RH WIND       PRES   REMARKS
SUPERIOR ARPT  CLOUDY    64  63  95 E6        29.92R
ASHLAND        FOG       68  68 100 CALM      29.93S VSB 1/2
HAYWARD        TSTM      66  64  93 W17G36    30.01R VSB 3/4
SIREN          LGT RAIN  69  67  93 S9        29.93F
CUMBERLAND     CLOUDY    70  70 100 S5        29.94R FOG
RICE LAKE      CLOUDY    72  71  96 SE3       29.95R FOG
CHETEK         CLOUDY   N/A N/A N/A CALM      29.95R HAZE
LADYSMITH      CLOUDY    72  70  96 CALM      29.97R FOG
EAU CLAIRE     NOT AVBL
MENOMONIE      CLOUDY    71  71  98 E3        29.94R FOG
NEW RICHMOND   LGT RAIN  73  72  96 SW6       29.94R
OSCEOLA        RAIN      73  73 100 CALM      29.96R
$$

WIZ003>005-009-010-017-018-021100-
NORTH CENTRAL WISCONSIN

CITY           SKY/WX    TMP DP  RH WIND       PRES   REMARKS
MANITOWISH WTR MOCLDY    63  63 100 CALM      29.98S FOG
ARBOR VITAE    PTCLDY    66  64  96 CALM      29.98S FOG
WOODRUFF       PTCLDY    66  64  96 CALM      29.98S FOG
RHINELANDER    PTCLDY    69  67  93 CALM      29.99S FOG
EAGLE RIVER    MOCLDY    64  64 100 CALM      29.98F FOG
LAND O LAKES   FOG       61  61 100 CALM      30.00S VSB 1/2
PHILLIPS       CLOUDY    69  69 100 CALM      29.97R FOG
TOMAHAWK       FOG       66  65  97 CALM      29.98S VSB 1
MEDFORD        MOCLDY    69  69 100 S5        29.97S FOG
MERRILL        FOG       64  64 100 CALM      29.98S VSB 1/4
$$

WIZ029-030-035-036-043>047-021100-
CENTRAL WISCONSIN

CITY           SKY/WX    TMP DP  RH WIND       PRES   REMARKS
WAUSAU         MOCLDY    72  70  93 SE3       29.96S FOG
MOSINEE        PTCLDY    68  68 100 SW5       29.99S FOG
MARSHFIELD     FOG       69  65  86 SW3       29.98S VSB 1/4
STEVENS POINT  PTCLDY    69  68  99 S3        29.99R FOG
WAUPACA        FOG       70  69  98 CALM      29.98R VSB 1/2
WAUTOMA        FOG       66  66 100 CALM      29.99R VSB 1/4
WISC RAPIDS    PTCLDY    70  68  93 S3        29.99S FOG
CAMP DOUGLAS   FOG       64  64 100 SE5       29.98S VSB 1
$$

WIZ011>013-019>022-031-037>040-048>050-021100-
NORTHEAST WISCONSIN

CITY           SKY/WX    TMP DP  RH WIND       PRES   REMARKS
ANTIGO         FOG       64  64 100 CALM      29.99S VSB 1/4
SHAWANO        PTCLDY    71  69  94 CALM      29.96S FOG
OCONTO         PTCLDY    68  68 100 CALM      29.94S
STURGEON BAY   PTCLDY    73  70  88 W5        29.96F
GREEN BAY      PTCLDY    71  69  93 SW3       29.96S FOG
MANITOWOC      NOT AVBL
APPLETON       PTCLDY    70  70 100 S3        29.96S FOG
CLINTONVILLE   FOG       66  64  94 CALM      29.96R VSB 1
OSHKOSH        CLEAR     73  70  90 SW8       29.97S FOG
$$

WIZ032>034-041-042-053>061-021100-
SOUTHWEST WISCONSIN

CITY           SKY/WX    TMP DP  RH WIND       PRES   REMARKS
LA CROSSE      MOCLDY    75  70  84 S8        29.95S
SPARTA         PTCLDY    65  64  96 CALM      29.98S
VIROQUA          N/A     71  71 100 CALM      30.01R
BOSCOBEL       FOG       67  65  93 CALM      29.99S VSB 1/4
PRAIRIE DU CHI PTCLDY    71  66  85 CALM      29.99S
PLATTEVILLE    CLEAR     69  67  95 S6        30.01S
$$

WIZ056-057-062-063-064-067-068-021100-
SOUTH CENTRAL WISCONSIN

CITY           SKY/WX    TMP DP  RH WIND       PRES   REMARKS
REEDSBURG      PTCLDY    71  70  97 CALM      29.99R
BARABOO/DELLS  PTCLDY    72  68  87 CALM      29.99S
LONE ROCK      MOCLDY    68  66  94 CALM      30.00R FOG
MINERAL POINT  CLEAR     72  68  88 SW5       30.02S
MADISON        PTCLDY    74  68  81 CALM      30.00R
MIDDLETON      PTCLDY    73  70  90 S3        30.01R
WATERTOWN      PTCLDY    67  67 100 CALM      30.00S FOG
MONROE         CLEAR     70  68  94 SW8       30.02R
JANESVILLE     MOCLDY    72  70  94 CALM      30.01R
$$

WIZ051-052-058>065-066-070>072-021100-
SOUTHEAST WISCONSIN

CITY           SKY/WX    TMP DP  RH WIND       PRES   REMARKS
MILWAUKEE      PTCLDY    75  68  78 W5        30.00S
WAUKESHA       CLEAR     68  66  94 CALM      30.02S
MILWAUKEE/TIMM MOCLDY    72  66  83 SW3       30.01S
RACINE         PTCLDY    73  68  84 W6        30.02S
BURLINGTON     PTCLDY    65  65  97 CALM      30.02R FOG
KENOSHA        PTCLDY    72  68  87 W7        30.02R
FOND DU LAC    CLEAR     73  71  93 SW7       29.99R
SHEBOYGAN      PTCLDY    72  70  93 SW6       29.98R
WEST BEND      CLEAR     70  68  94 CALM      30.00S
JUNEAU         CLEAR     69  68  98 CALM      30.01S FOG
$$

LSZ147-162-021100-
LAKE SUPERIOR

STATION/POSITION TIME  TEMP    WIND        PRES    WAVE
                       AIR SEA DIR/SP/G            HT/PER
                 (UTC) (F)     (DEG/KT/KT) (MB)    (FT/S)
W MID LAKE BUOY  0850   57 56   50/  4/  4 1013.7F   0
DEVILS ISLAND    0900   68     120/  7/  7 1013.5S
PORT WING        0900   63      60/  4/  9 1012.9
SAXON HARBOR     0900   66        CALM     1012.9
$$

LMZ867-665-643>646-021100-
LAKE MICHIGAN

STATION/POSITION TIME  TEMP    WIND        PRES    WAVE
                       AIR SEA DIR/SP/G            HT/PER
                 (UTC) (F)     (DEG/KT/KT) (MB)    (FT/S)
CHAMBERS ISLAND  0900   71      CALM  /  6 1013.5F
S GREEN BAY BUOY 0930   69 67  220/  6/  6 1015.3F
N MID LAKE BUOY  0850   66 65  210/  8/ 10 1013.6R   2/ 4
NORTHPORT PIER   0900   64      CALM  /  3 1013.5
SISTER BAY       0919   73        CALM       N/A
ALGOMA LAKESHORE 0929             CALM       N/A
KEWAUNEE LAKESHO 0900   55     210/  2/  2 1013.0F
SHEBOYGAN LAKESH 0900   71     210/  6/  6 1014.6F
PORT WASHINGTON  0900   75     260/  5/  9 1015.6
ATWATER BUOY     0900   67 49  240/  6/  6 1016.9R
MILWAUKEE LAKESH 0910   76     240/  7/  8   N/A
S MID LAKE BUOY  0850   72 70  200/  8/ 10 1015.5R   1/ 4
KENOSHA   LAKESH 0900   77     250/  7/ 10 1015.6S
$$

TC  - TEMPERATURE IN CELSIUS
VSB - VISIBILITY IN STATUTE MILES
WCI - WIND CHILL INDEX
HX  - HEAT INDEX



USA.gov is the U.S. government's official web portal to all federal, state and local government web resources and services.